Time+13,TemperatureF,Dew PointF,Humidity,Sea Level PressureIn,VisibilityMPH,Wind Direction,Wind SpeedMPH,Gust SpeedMPH,PrecipitationIn,Events,Conditions,WindDirDegrees,DateUTC
12:00 AM,73.4,71.6,94,29.92,24.9,Calm,Calm,-,N/A,,Mostly Cloudy,0,2012-11-13 11:00:00
1:00 AM,74,72,94,29.91,12,Calm,Calm,,,,Partly Cloudy,,2012-11-13 12:00:00
1:00 AM,73.4,73.4,100,29.89,24.9,Calm,Calm,-,N/A,,Overcast,0,2012-11-13 12:00:00
2:00 AM,73.4,71.6,94,29.89,24.9,Calm,Calm,-,N/A,,Overcast,0,2012-11-13 13:00:00
3:00 AM,73.4,71.6,94,29.86,24.9,Calm,Calm,-,N/A,,Overcast,0,2012-11-13 14:00:00
4:00 AM,74,71,87,29.86,12,SSE,4.6,,,,Partly Cloudy,150,2012-11-13 15:00:00
4:00 AM,73.4,71.6,94,29.86,24.9,SSE,4.6,-,N/A,,Overcast,150,2012-11-13 15:00:00
5:00 AM,73.4,71.6,94,29.86,24.9,Calm,Calm,-,N/A,,Overcast,0,2012-11-13 16:00:00
6:00 AM,73.4,69.8,88,29.86,24.9,SSE,5.8,-,N/A,,Overcast,150,2012-11-13 17:00:00
7:00 AM,74,69,81,29.88,31,SSE,4.6,,,,Partly Cloudy,150,2012-11-13 18:00:00
7:00 AM,73.4,69.8,88,29.86,31.1,SSE,4.6,-,N/A,,Overcast,150,2012-11-13 18:00:00
8:00 AM,75.2,69.8,83,29.89,31.1,SE,9.2,-,N/A,,Mostly Cloudy,130,2012-11-13 19:00:00
9:00 AM,77.0,69.8,78,29.92,31.1,SE,10.4,-,N/A,,Mostly Cloudy,130,2012-11-13 20:00:00
10:00 AM,79,71,69,29.93,31,ESE,11.5,,,,Partly Cloudy,120,2012-11-13 21:00:00
10:00 AM,78.8,71.6,78,29.92,31.1,ESE,11.5,-,N/A,,Mostly Cloudy,120,2012-11-13 21:00:00
11:00 AM,82.4,71.6,70,29.92,31.1,ESE,11.5,-,N/A,,Mostly Cloudy,120,2012-11-13 22:00:00
12:00 PM,82.4,69.8,66,29.92,31.1,SSE,8.1,-,N/A,,Mostly Cloudy,150,2012-11-13 23:00:00
1:00 PM,84,71,57,29.91,31,SSE,11.5,,,,Partly Cloudy,150,2012-11-14 00:00:00
1:00 PM,84.2,71.6,66,29.89,31.1,SSE,11.5,-,N/A,,Mostly Cloudy,150,2012-11-14 00:00:00
2:00 PM,86.0,69.8,58,29.89,31.1,SE,12.7,-,N/A,,Mostly Cloudy,130,2012-11-14 01:00:00
3:00 PM,86.0,69.8,58,29.86,31.1,SSE,10.4,-,N/A,,Mostly Cloudy,150,2012-11-14 02:00:00
4:00 PM,84,71,56,29.86,31,ESE,11.5,,,,Partly Cloudy,120,2012-11-14 03:00:00
4:00 PM,84.2,71.6,66,29.86,31.1,ESE,11.5,-,N/A,,Mostly Cloudy,120,2012-11-14 03:00:00
5:00 PM,82.4,69.8,66,29.86,31.1,SE,11.5,-,N/A,Rain,Light Rain Showers,130,2012-11-14 04:00:00
6:00 PM,80.6,69.8,70,29.86,24.9,SSE,13.8,-,N/A,,Overcast,150,2012-11-14 05:00:00
7:00 PM,79,69,65,29.88,12,ESE,8.1,,,,Partly Cloudy,120,2012-11-14 06:00:00
7:00 PM,78.8,69.8,74,29.86,24.9,ESE,8.1,-,N/A,,Overcast,120,2012-11-14 06:00:00
8:00 PM,77.0,69.8,78,29.89,24.9,ESE,9.2,-,N/A,,Overcast,120,2012-11-14 07:00:00
9:00 PM,77.0,69.8,78,29.92,24.9,ESE,11.5,-,N/A,,Mostly Cloudy,110,2012-11-14 08:00:00
10:00 PM,76,68,70,29.95,12,SSE,9.2,,,,Partly Cloudy,150,2012-11-14 09:00:00
10:00 PM,75.2,68.0,78,29.95,24.9,SSE,9.2,-,N/A,,Mostly Cloudy,150,2012-11-14 09:00:00
11:00 PM,77.0,68.0,74,29.95,24.9,SE,11.5,-,N/A,,Mostly Cloudy,140,2012-11-14 10:00:00